When you browse on this site, cookies collect data to enhance your experience and personalize the content and advertising you see.
Visit our Privacy Policy to learn more. By continuing to use the site, you agree to this use of cookies and data.
  • In Hungary
  • List of Countries
  • For 7 days
  • Water Temperature
  • Satellite Maps
  • Weather Map
  • News
  • Weather Widgets
  • user-avatar
    Login

    Hourly Weather Koenigswinter

    Today, 24 February, Sunday

    Time Temperature Precipitation Wind Pressure Humidity
    00:00 +3°C° 0 mm 2 mps 765 mmHg 56%
    01:00 +3°C° 0 mm 2 mps 765 mmHg 54%
    02:00 +2°C° 0 mm 2 mps 765 mmHg 52%
    03:00 +2°C° 0 mm 2 mps 765 mmHg 50%
    04:00 +2°C° 0 mm 2 mps 765 mmHg 49%
    05:00 +2°C° 0 mm 2 mps 765 mmHg 48%
    06:00 +2°C° 0 mm 2 mps 765 mmHg 47%
    07:00 +3°C° 0 mm 2 mps 765 mmHg 44%
    08:00 +5°C° 0 mm 2 mps 766 mmHg 40%
    09:00 +6°C° 0 mm 2 mps 766 mmHg 37%
    10:00 +8°C° 0 mm 2 mps 766 mmHg 35%
    11:00 +9°C° 0 mm 2 mps 766 mmHg 33%
    12:00 +12°C° 0 mm 2 mps 766 mmHg 31%
    13:00 +12°C° 0 mm 2 mps 766 mmHg 33%
    14:00 +13°C° 0 mm 1 mps 765 mmHg 34%
    15:00 +13°C° 0 mm 1 mps 765 mmHg 36%
    16:00 +11°C° 0 mm 1 mps 765 mmHg 40%
    17:00 +10°C° 0 mm 1 mps 765 mmHg 44%
    18:00 +8°C° 0 mm 1 mps 765 mmHg 48%
    19:00 +8°C° 0 mm 1 mps 765 mmHg 49%
    20:00 +7°C° 0 mm 1 mps 765 mmHg 49%
    21:00 +7°C° 0 mm 1 mps 766 mmHg 49%
    22:00 +7°C° 0 mm 1 mps 766 mmHg 49%
    23:00 +6°C° 0 mm 1 mps 766 mmHg 50%

    Tomorrow, 25 February, Monday

    Time Temperature Precipitation Wind Pressure Humidity
    00:00 +6°C° 0 mm 1 mps 766 mmHg 50%
    01:00 +6°C° 0 mm 1 mps 766 mmHg 50%
    02:00 +6°C° 0 mm 1 mps 766 mmHg 51%
    03:00 +5°C° 0 mm 1 mps 766 mmHg 51%
    04:00 +5°C° 0 mm 1 mps 766 mmHg 52%
    05:00 +5°C° 0 mm 1 mps 766 mmHg 52%
    06:00 +5°C° 0 mm 1 mps 766 mmHg 53%
    07:00 +6°C° 0 mm 1 mps 766 mmHg 51%
    08:00 +8°C° 0 mm 1 mps 766 mmHg 49%
    09:00 +10°C° 0 mm 1 mps 766 mmHg 47%
    10:00 +12°C° 0 mm 1 mps 766 mmHg 44%
    11:00 +13°C° 0 mm 1 mps 766 mmHg 41%
    12:00 +15°C° 0 mm 1 mps 766 mmHg 39%
    13:00 +15°C° 0 mm 1 mps 766 mmHg 40%
    14:00 +16°C° 0 mm 1 mps 765 mmHg 42%
    15:00 +16°C° 0 mm 1 mps 765 mmHg 44%
    16:00 +14°C° 0 mm 1 mps 765 mmHg 50%
    17:00 +11°C° 0 mm 0 mps 765 mmHg 55%
    18:00 +9°C° 0 mm 0 mps 765 mmHg 61%
    19:00 +9°C° 0 mm 0 mps 765 mmHg 63%
    20:00 +8°C° 0 mm 0 mps 765 mmHg 65%
    21:00 +8°C° 0 mm 0 mps 765 mmHg 67%
    22:00 +7°C° 0 mm 0 mps 765 mmHg 68%
    23:00 +7°C° 0 mm 0 mps 765 mmHg 69%

    Day after tomorrow, 26 February, Tuesday

    Time Temperature Precipitation Wind Pressure Humidity
    00:00 +8°C° 0 mm 1 mps 765 mmHg 71%
    01:00 +8°C° 0 mm 1 mps 765 mmHg 71%
    02:00 +7°C° 0 mm 1 mps 764 mmHg 72%
    03:00 +7°C° 0 mm 1 mps 764 mmHg 72%
    04:00 +7°C° 0 mm 1 mps 764 mmHg 72%
    05:00 +7°C° 0 mm 1 mps 764 mmHg 73%
    06:00 +5°C° 0 mm 0 mps 764 mmHg 73%
    07:00 +7°C° 0 mm 0 mps 764 mmHg 68%
    08:00 +9°C° 0 mm 0 mps 764 mmHg 63%
    09:00 +10°C° 0 mm 0 mps 764 mmHg 57%
    10:00 +12°C° 0 mm 0 mps 764 mmHg 52%
    11:00 +14°C° 0 mm 0 mps 764 mmHg 46%
    12:00 +16°C° 0 mm 0 mps 764 mmHg 40%
    13:00 +16°C° 0 mm 0 mps 764 mmHg 41%
    14:00 +16°C° 0 mm 0 mps 763 mmHg 41%
    15:00 +18°C° 0 mm 1 mps 763 mmHg 41%
    16:00 +15°C° 0 mm 1 mps 763 mmHg 46%
    17:00 +12°C° 0 mm 0 mps 763 mmHg 51%
    18:00 +10°C° 0 mm 0 mps 763 mmHg 56%
    19:00 +10°C° 0 mm 0 mps 763 mmHg 58%
    20:00 +10°C° 0 mm 1 mps 763 mmHg 60%
    21:00 +10°C° 0 mm 1 mps 763 mmHg 61%
    22:00 +9°C° 0 mm 1 mps 763 mmHg 62%
    23:00 +9°C° 0 mm 1 mps 763 mmHg 63%

    27 February, Wednesday

    Time Temperature Precipitation Wind Pressure Humidity
    00:00 +9°C° 0 mm 1 mps 763 mmHg 64%
    01:00 +8°C° 0 mm 1 mps 762 mmHg 64%
    02:00 +8°C° 0 mm 1 mps 762 mmHg 63%
    03:00 +8°C° 0 mm 1 mps 762 mmHg 62%
    04:00 +7°C° 0 mm 1 mps 761 mmHg 61%
    05:00 +7°C° 0 mm 1 mps 761 mmHg 60%
    06:00 +7°C° 0 mm 1 mps 761 mmHg 59%
    07:00 +8°C° 0 mm 1 mps 761 mmHg 56%
    08:00 +10°C° 0 mm 1 mps 761 mmHg 52%
    09:00 +12°C° 0 mm 2 mps 761 mmHg 49%
    10:00 +13°C° 0 mm 2 mps 761 mmHg 45%
    11:00 +15°C° 0 mm 2 mps 760 mmHg 41%
    12:00 +17°C° 0 mm 2 mps 760 mmHg 38%
    13:00 +17°C° 0 mm 2 mps 759 mmHg 39%
    14:00 +19°C° 0 mm 1 mps 759 mmHg 40%
    15:00 +19°C° 0 mm 1 mps 758 mmHg 41%
    16:00 +16°C° 0 mm 1 mps 758 mmHg 47%
    17:00 +14°C° 0 mm 1 mps 758 mmHg 54%
    18:00 +12°C° 0 mm 1 mps 758 mmHg 61%
    19:00 +10°C° 0 mm 2 mps 758 mmHg 65%
    20:00 +10°C° 0 mm 2 mps 758 mmHg 69%
    21:00 +9°C° 0 mm 2 mps 757 mmHg 74%
    22:00 +9°C° 0 mm 2 mps 757 mmHg 77%
    23:00 +8°C° 0 mm 2 mps 757 mmHg 80%

    28 February, Thursday

    Time Temperature Precipitation Wind Pressure Humidity
    00:00 +8°C° 0 mm 2 mps 757 mmHg 83%
    01:00 +8°C° 0 mm 2 mps 757 mmHg 84%
    02:00 +8°C° 0 mm 2 mps 756 mmHg 86%
    03:00 +8°C° 0 mm 2 mps 756 mmHg 88%
    04:00 +7°C° 0 mm 2 mps 756 mmHg 89%
    05:00 +7°C° 0 mm 2 mps 756 mmHg 91%
    06:00 +7°C° 0 mm 2 mps 756 mmHg 92%
    07:00 +8°C° 0 mm 2 mps 756 mmHg 89%
    08:00 +9°C° 0 mm 3 mps 757 mmHg 85%
    09:00 +10°C° 0 mm 3 mps 757 mmHg 82%
    10:00 +10°C° 0 mm 3 mps 757 mmHg 81%
    11:00 +10°C° 0 mm 3 mps 757 mmHg 80%
    12:00 +10°C° 0 mm 3 mps 757 mmHg 79%
    13:00 +10°C° 0 mm 4 mps 757 mmHg 77%
    14:00 +11°C° 0 mm 4 mps 757 mmHg 76%
    15:00 +11°C° 0 mm 4 mps 757 mmHg 75%
    16:00 +10°C° 0 mm 3 mps 757 mmHg 79%
    17:00 +9°C° 0 mm 2 mps 757 mmHg 82%
    18:00 +9°C° 0 mm 2 mps 758 mmHg 86%
    19:00 +8°C° 0 mm 2 mps 758 mmHg 87%
    20:00 +9°C° 0 mm 1 mps 758 mmHg 89%
    21:00 +8°C° 0 mm 1 mps 758 mmHg 91%
    22:00 +8°C° 0 mm 1 mps 758 mmHg 92%
    23:00 +7°C° 0 mm 1 mps 758 mmHg 93%

    1 March, Friday

    Time Temperature Precipitation Wind Pressure Humidity
    00:00 +7°C° 0 mm 1 mps 758 mmHg 94%
    01:00 +6°C° 0 mm 1 mps 758 mmHg 95%
    02:00 +6°C° 0 mm 1 mps 758 mmHg 96%
    03:00 +6°C° 0 mm 1 mps 758 mmHg 97%
    04:00 +6°C° 0 mm 1 mps 758 mmHg 96%
    05:00 +6°C° 0 mm 1 mps 758 mmHg 96%
    06:00 +6°C° 0 mm 1 mps 758 mmHg 96%
    07:00 +7°C° 0 mm 1 mps 758 mmHg 91%
    08:00 +8°C° 0 mm 1 mps 758 mmHg 87%
    09:00 +8°C° 0 mm 1 mps 758 mmHg 82%
    10:00 +10°C° 0 mm 1 mps 757 mmHg 77%
    11:00 +11°C° 0 mm 1 mps 757 mmHg 73%
    12:00 +12°C° 0 mm 2 mps 757 mmHg 68%
    13:00 +12°C° 0 mm 2 mps 757 mmHg 67%
    14:00 +12°C° 0 mm 2 mps 757 mmHg 65%
    15:00 +12°C° 0 mm 2 mps 756 mmHg 64%
    16:00 +11°C° 0 mm 1 mps 756 mmHg 69%
    17:00 +9°C° 0 mm 1 mps 756 mmHg 74%
    18:00 +8°C° 0 mm 1 mps 756 mmHg 80%
    19:00 +8°C° 0 mm 1 mps 757 mmHg 82%
    20:00 +7°C° 0 mm 1 mps 757 mmHg 85%
    21:00 +6°C° 0 mm 1 mps 758 mmHg 88%
    22:00 +5°C° 0 mm 2 mps 758 mmHg 88%
    23:00 +4°C° 0 mm 2 mps 758 mmHg 88%
    Show more